COSMOS 2251 DEB, 33984

Orbit data source: Space-Track

COSMOS 2251 DEB, 33984 is space debris in LEO originally from a launch on Wed, 16 Jun 1993 UTC launched from the Plesetsk Missile And Space Complex (PKMTR). The debris from Iridium 33, an American commercial communications satellite, has been tracked extensively since its accidental collision with the defunct Russian satellite Cosmos 2251 in 2009. This event, occurring at high speed in low Earth orbit (LEO), generated thousands of pieces of space debris, significantly increasing the risk of further collisions. The Iridium 33 debris cloud has impacted space traffic management and orbital debris mitigation strategies, making it a subject of ongoing study in space situational awareness.

Loading next visibility...
Identifier
33984, 1993-036FT
Orbit
LEO
Country
Flag of CISCIS
Related business
Manufacturer
Unknown
Mission
Spacecraft
Bus & Motor
Unknown
Mass
Unknown
Launch date (UTC)
1993-06-16 (33 years ago)
Launch vehicle
Unknown
Launch site
Plesetsk Missile And Space Complex (PKMTR)
Object type
Payload
Rocket body
Debris
Shape & HBR
Unknown shape, 0.2 m
Radar Cross Section
Medium (>0.1 m² and <1 m²)

Expand to show TLE details & history
Last TLE update: 1 day ago

TLE from 1 day ago
0 COSMOS 2251 DEB
1 33984U 93036FT  26206.28946277  .00002896  00000-0  50559-3 0  9991
2 33984  74.0074 272.7582 0022755  44.1275  22.5520 14.68270577923601
Epoch: 2026-07-25T06:56Z
TLE epoch observation values (Epoch: 2026-07-25T06:56:49.583Z)
Latitude
62.16355°
Longitude
-101.78051°
Altitude
662.094 km
Speed
7.54 km/s
True Right ascension
20h 21m 43s
True Declination
62° 01' 10"
Sunlit
Object was in daylight at epoch
Visualization orbit readout
Latitude
Unknown
Longitude
Unknown
Altitude
Unknown
Speed
Unknown
Apparent Right ascension
Unknown
Apparent Declination
Unknown
Sunlit
N/A
Visualization observer readout
Local Sidereal Time
00:11:12
Azimuth
Unknown
Elevation
Unknown
Doppler factor
Unknown
Orbital elements
Apogee altitude
680.21 km
Perigee altitude
648.161 km
Semi-major axis
7,042.322 km
Eccentricity
0.00228
Inclination
74.0074°
RAAN
272.7582°
Arg. of periapsis
44.1275°
True anomaly
22.65227°
Mean anomaly
22.552°
Eccentric anomaly
22.60211°
Mean motion
3.67256 °/min
Orbital period
98.02 mins
BSTAR
0.00050559

Documentation

Showing up to 5 results
|